This demonstration page uses our WeatherBlox Daily Observations layout. Learn more.

Left ArrowRight Arrow

44.8408, -93.29828

Hourly Observations for August 14, 2022

Temp ( °F °C ) Dew Point ( °F °C ) Humidity (%) Winds ( mph kmh ) Pressure ( in mb ) Visibility ( mi km ) Precip ( " mm )
12:02 am 00:02 Cloudy 65 18.3 57 13.9 76 76 NNE 5 7 30.02 1017 10 16 0.00 0.00
12:53 am 00:53 Cloudy 65 18.3 57 13.9 76 76 NNE 7 11 30.04 1017 10 16 0.00 0.00
1:53 am 01:53 Cloudy 64 17.8 57 13.9 78 78 N 8 13 30.03 1017 10 16 0.00 0.00
2:53 am 02:53 Cloudy 63 17.2 56 13.3 78 78 N 7 11 30.03 1017 10 16 0.00 0.00
3:53 am 03:53 Mostly Clear 60 15.6 56 13.3 86 86 N 6 9 30.03 1017 10 16 0.00 0.00
4:53 am 04:53 Mostly Clear 58 14.4 56 13.3 93 93 N 5 7 30.04 1017 10 16 0.00 0.00
5:26 am 05:26 Partly Cloudy 58 14.4 56 13.3 93 93 N 3 6 30.03 1017 10 16 0.00 0.00
5:42 am 05:42 Mostly Cloudy 58 14.4 56 13.3 93 93 N 7 11 30.04 1017 10 16 0.00 0.00
5:53 am 05:53 Cloudy 58 14.4 56 13.3 93 93 N 9 15 30.03 1017 10 16 0.00 0.00
6:53 am 06:53 Cloudy 58 14.4 56 13.3 93 93 VRB 6 9 30.04 1017 10 16 0.00 0.00
7:53 am 07:53 Cloudy 58 14.4 56 13.3 93 93 VRB 7 11 30.06 1018 10 16 0.00 0.00
8:53 am 08:53 Cloudy 60 15.6 57 13.9 90 90 Calm 30.07 1018 10 16 0.00 0.00
9:53 am 09:53 Mostly Cloudy 62 16.7 57 13.9 84 84 VRB 5 7 30.09 1019 10 16 0.00 0.00
10:16 am 10:16 Mostly Cloudy 62 16.7 56 13.3 80 80 NW 3 6 30.08 1019 10 16 0.00 0.00
10:53 am 10:53 Mostly Cloudy 65 18.3 58 14.4 78 78 NNE 5 7 30.09 1019 10 16 0.00 0.00
11:53 am 11:53 Mostly Cloudy 66 18.9 57 13.9 73 73 VRB 5 7 30.08 1019 10 16 0.00 0.00
12:31 pm 12:31 Mostly Cloudy 68 20 58 14.4 70 70 E 8 13 30.06 1018 10 16 0.00 0.00
12:53 pm 12:53 Mostly Cloudy 68 20 58 14.4 70 70 E 9 15 30.06 1018 10 16 0.00 0.00
1:53 pm 13:53 Mostly Cloudy 69 20.6 58 14.4 68 68 VRB 6 9 30.06 1018 10 16 0.00 0.00
2:53 pm 14:53 Mostly Cloudy 70 21.1 59 15 68 68 VRB 7 11 30.05 1018 10 16 0.00 0.00
3:53 pm 15:53 Mostly Cloudy 71 21.7 59 15 66 66 VRB 5 7 30.05 1018 10 16 0.00 0.00
4:53 pm 16:53 Mostly Cloudy 71 21.7 60 15.6 68 68 E 6 9 30.07 1018 10 16 0.00 0.00
5:53 pm 17:53 Partly Cloudy 71 21.7 60 15.6 68 68 SSE 6 9 30.07 1018 10 16 0.00 0.00
6:53 pm 18:53 Partly Cloudy 70 21.1 59 15 68 68 SE 7 11 30.06 1018 10 16 0.00 0.00
7:53 pm 19:53 Partly Cloudy 68 20 59 15 73 73 SSE 6 9 30.06 1018 10 16 0.00 0.00
8:53 pm 20:53 Partly Cloudy 66 18.9 59 15 78 78 SSE 7 11 30.06 1018 10 16 0.00 0.00
9:53 pm 21:53 Partly Cloudy 65 18.3 59 15 81 81 SSE 7 11 30.06 1018 10 16 0.00 0.00
10:53 pm 22:53 Partly Cloudy 65 18.3 59 15 81 81 SE 5 7 30.06 1018 10 16 0.00 0.00
11:53 pm 23:53 Mostly Clear 65 18.3 59 15 81 81 SE 5 7 30.06 1018 10 16 0.00 0.00

Powered by AerisWeather